星链-5868 (STARLINK-5868 )

导读

STARLINK-5868是美国SpaceX公司星链(Starlink)项目的第二代通信卫星,于2023年5月10日发射升空,运行在近地轨道,属于全球卫星互联网星座组网的组成部分。它主要面向全球偏远地区、移动场景以及商业用户提供高速宽带互联网服务,同时也服务于美国军方通信需求,进一步完善了星链星座的覆盖能力与服务稳定性。

Basic Information
目录编号:
56483
目录名称:
STARLINK-5868
国际标识:
2023-064AM
轨道中心:
EARTH
卫星名称:
星链-5868
卫星全名:
星链-5868 (STARLINK-5868 )
卫星状态:
在轨 (已飞行1132 天)
发射日期:
2023-05-10 UTC
国别 :
美国 (US)
星等 :
--
Orbit Information
数据来源 国际轨道数据 AOE轨道数据
星历时间 2026-06-14T23:29:20+0800
12小时前
查看轨道信息
2026-06-10T04:00:00+0800
5天前
查看轨道信息
半长轴 6950.188km 6950.135km
偏心率 0.0003333 0.0003211
轨道倾角 69.999° 69.997°
近地点辐角 270.524° 277.065°
升交点赤经 239.934° 252.065°
平近点角 89.553° 54.334°
近地点 569.734km 569.766km
远地点 574.368km 574.23km
周期 96.107分钟 96.106分钟
每日圈数 14.983316 14.98349
Detailed Information
固有亮度:
5
最大亮度:
2.5
卫星平台:
Starlink v1.5
覆盖范围:
全球
运营商:
太空探索技术公司
运营商所在国:
美国
制造商(研发单位):
太空探索技术公司
制造商所在国:
美国
使用方式:
暂无
Satellite Introduction
星链(Starlink)计划是由太空探索技术公司(SpaceX)提出的一个巨型低轨卫星互联网星座项目,计划在2019年至2024年间在太空搭建由约1.2万颗卫星组成的“星链”网络,其中1584颗将部署在地球上空550千米处的近地轨道,并从2020年开始工作。该卫星仍在工作。
2D Orbit Map
3D Orbit Map
Orbit Altitude Analysis Chart
Orbit Inclination Analysis Chart
Orbit Comprehensive Analysis Chart
View Comprehensive Chart